www.pogodaiklimat.ru

Погода и климат >> Архив погоды >> Нигер >> Тахва


ПОГОДА в Тахве

  • Прогноз погоды в Тахве
  • Монитор погоды в Тахве

АРХИВ ПОГОДЫ в Тахве

Время (UTC), дата Ветер
(напр.,м/с)
 
Видим.   Явления Облачность Т
(С)
Тd
(С)
f
(%)
Тe
(С)
Тes
(С)
Комфортность P
(гПа)
Po
(гПа)
Тmin
(С)
Tmax
(С)
R
(мм)
R24
(мм)
S
(см)
06 12.02 В 10 8000 м пыль 8/0
[Cs]
+16.3 -7.5 19 +15 +15 1013.8 969.4 +16.2
09 12.02 В 10 8000 м пыль 6/0
[Ci sp]
+22.5 -7.0 13 +21 +21 комфорт 1015.6 971.6
12 12.02 В 16 8000 м пыльный позёмок 8/0
[Cs]
+29.0 -10.8 7 +25 +25 комфорт 1014.0 970.0
15 12.02 СВ 14 8000 м пыльный позёмок 8/0
[Cs]
+31.0 -12.0 5 +27 +27 жарко 1011.4 967.6
18 12.02 СВ 10 10 км 6/0
[Ci sp]
+27.7 -9.3 8 +24 +24 комфорт 1012.9 968.6
21 12.02 В 10 10 км 6/0
[Ci sp]
+24.0 -5.3 14 +22 +22 комфорт 1014.7 970.5
03 13.02 СВ 6 10 км 6/0
[Ci sp]
+17.6 -6.8 18 +17 +17 1011.9 968.0
06 13.02 СВ 8 6000 м пыль 6/0
[Ci sp]
+16.3 -7.6 19 +15 +15 1014.7 970.3 +16.0
09 13.02 В 10 8000 м пыль 6/0
[Ci sp]
+23.8 -11.9 8 +21 +22 комфорт 1016.5 972.4
12 13.02 СВ 12 8000 м пыль 6/0
[Ci sp]
+30.4 -17.0 4 +26 +26 жарко 1014.7 970.9
15 13.02 СВ 16 8000 м пыль 6/0
[Ci sp]
+31.6 -14.7 4 +27 +27 жарко 1012.8 968.9
18 13.02 СВ 12 10 км 6/0
[Ci sp]
+28.2 -14.8 5 +24 +24 комфорт 1013.8 969.6 +32.7
21 13.02 СВ 8 10 км 6/0
[Ci sp]
+22.4 -10.5 10 +20 +20 1016.0 971.7
03 14.02 В 12 10 км 6/0
[Ci sp]
+20.0 -12.2 10 +18 +18 1015.2 971.4
06 14.02 В 16 8000 м пыль 6/0
[Ci sp]
+18.7 -11.7 12 +17 +17 1016.9 972.6 +16.5
09 14.02 В 20 3800 м пыльный позёмок 6/0
[Ci sp]
+21.2 -6.9 14 +20 +20 1019.4 974.9
12 14.02 В 18 3800 м пыльный позёмок 6/0
[Ci sp]
+26.8 -7.5 10 +24 +24 комфорт 1017.4 973.3
15 14.02 В 16 1500 м пыльный позёмок 6/0
[Ci sp]
+28.6 -17.0 4 +24 +24 комфорт 1014.8 970.8
18 14.02 СВ 12 1600 м пыль 6/0
[Ci sp]
+25.7 -19.2 4 +22 +22 комфорт 1015.5 971.1 +29.5
21 14.02 СВ 10 2000 м пыль 6/0
[Ci sp]
+21.8 -11.4 10 +20 +20 1018.0 973.6
03 15.02 В 10 3000 м пыль 6/0
[Ci sp]
+16.0 -9.0 17 +14 +14 1017.3 972.9
06 15.02 В 16 4000 м пыльный позёмок 6/0
[Ci sp]
+15.8 -8.4 18 +13 +13 1018.0 973.4 +15.2
09 15.02 В 20 1400 м пыльный позёмок 6/0
[Ci sp]
+21.0 -7.5 14 +19 +19 1020.3 975.6
12 15.02 ЮВ 16 1400 м пыльный позёмок 6/0
[Ci sp]
+26.2 -9.1 9 +23 +23 комфорт 1018.3 973.8
15 15.02 В 16 1600 м пыльный позёмок 8/0
[Cs]
+28.2 -17.3 4 +24 +24 комфорт 1015.3 970.9
18 15.02 В 12 4000 м пыль 8/0
[Cs]
+24.8 -10.8 9 +22 +22 комфорт 1015.7 971.1 +29.2
21 15.02 В 8 4000 м пыль 8/0
[Cs]
+21.4 -8.7 12 +20 +20 1018.1 973.5
03 16.02 В 8 4000 м пыль 8/0
[Cs]
+15.7 -6.0 22 +14 +14 1015.6 971.2
06 16.02 В 12 3400 м пыль 8/0
[Cs]
+15.2 -7.7 20 +13 +13 1016.3 971.6 +15.0
09 16.02 ЮВ 18 3400 м пыльный позёмок 8/0
[Ci sp]
+21.8 -4.2 17 +21 +21 комфорт 1018.0 972.4
12 16.02 В 16 1400 м пыльный позёмок 8/0
[Cs]
+26.3 -9.8 9 +23 +23 комфорт 1016.4 972.0
15 16.02 ЮВ 14 4000 м пыльный позёмок 8/0
[Cs]
+27.7 -10.9 7 +24 +24 комфорт 1013.5 969.2
18 16.02 В 10 5000 м пыль 9/0
[Cs]
+26.0 -8.3 10 +23 +23 комфорт 1014.4 969.9 +29.0
21 16.02 В 8 4000 м пыль 9/0
[Cs]
+22.3 -8.6 12 +20 +20 1016.1 971.7
03 17.02 В 6 4500 м пыль 8/0
[Cs]
+17.6 -8.0 17 +17 +17 1014.6 970.4
06 17.02 В 8 4000 м пыль 8/0
[Cs]
+15.7 -8.1 19 +14 +14 1015.2 970.7 +15.5
09 17.02 В 18 1200 м пыльный позёмок 8/0
[Cs]
+22.5 -10.9 10 +20 +20 1017.0 972.6
12 17.02 В 16 2000 м пыль 9/0
[Cs]
+27.7 -11.8 7 +24 +24 комфорт 1015.1 971.0
15 17.02 ЮВ 4 3200 м пыль 9/0
[Cs]
+30.3 -7.4 8 +26 +30 жарко 1011.6 967.7
18 17.02 В 6 3000 м пыль 9/0
[Cs]
+28.5 -7.6 9 +25 +25 комфорт 1012.5 968.2 +31.0
21 17.02 В 8 3500 м пыль 9/0
[Cs]
+24.2 -7.5 12 +22 +22 комфорт 1014.5 970.4
03 18.02 В 10 6000 м пыль 6/0
[Ci sp]
+19.4 -8.1 15 +18 +18 1012.3 968.5
06 18.02 В 10 10 км 6/0
[Ci sp]
+16.7 -7.6 18 +15 +15 1013.5 969.3 +16.6
09 18.02 В 14 6000 м пыль 6/0
[Ci sp]
+24.8 -8.0 11 +22 +22 комфорт 1015.1 971.1
12 18.02 ЮВ 12 8000 м пыль 6/0
[Ci sp]
+29.5 -8.6 8 +26 +26 жарко 1013.4 969.7
15 18.02 В 8 8000 м пыль 6/0
[Ci sp]
+31.0 -8.0 7 +27 +28 жарко 1010.2 966.5
18 18.02 В 8 8000 м пыль 6/0
[Ci sp]
+29.0 -6.4 9 +25 +25 комфорт 1010.3 966.4 +32.0
21 18.02 В 10 10 км 6/0
[Ci sp]
+24.2 -7.4 12 +22 +22 комфорт 1012.3 968.4

 

Местоположение метеостанции Тахва (Нигер): широта 14.90 долгота 5.25 высота над уровнем моря 391 м.

В архиве по умолчанию представлена погода в Тахве за последнюю неделю. Архивные данные за месяц целиком и за предыдущие месяцы, начиная с января 2011 года, Вы можете получить, выбрав интересующий диапазон дат из раскрывающегося списка и нажав кнопку "Ввод!".


*Определитесь, кто Вы:
робот инопланетянин человек

Внимание! Время в таблицах - всемирное. Для получения местного времени необходимо прибавить поправку, которая равна 1 ч.

Смотрите также архив погоды в соседних городах и на ближайших метеорологических станциях:

Погода в Вирнин-Конни (Нигер) (122 км)
Погода в Маради (Нигер) (253 км)
Погода в Досо (Нигер) (305 км)
Погода в Ниамее (Нигер) (368 км)
Погода в Агадесе (Нигер) (371 км)
Погода в Гае (Нигер) (388 км)
Погода в Тиллабери (Нигер) (416 км)
Погода в Зиндере (Нигер) (421 км)
Погода в Йелве (Нигерия) (450 км)
Погода в Магарьа (Нигер) (451 км)

Пояснения к столбцам:

Ветер - указаны скорость ветра в м/с - средняя за 10 мин, порывы в срок и между сроками (в фигурных скобках) и направление, откуда дует ветер: С - северный, СВ - северо-восточный, В - восточный, ЮВ - юго-восточный, Ю - южный, ЮЗ - юго-западный, З - западный, СЗ - северо-западный.
Видимость - горизонтальная дальность видимости в метрах или километрах. При видимости от 1 до 10 км при отсутствии осадков обычно наблюдается дымка, при ухудшении видимости до 1 км и менее - туман. В сухую погоду видимость может ухудшаться дымом, пылью или мглою.
Явления - указаны атмосферные явления, наблюдавшиеся в срок или в последний час перед сроком; фигурными скобками обозначены явления, наблюдавшиеся между сроками (за 1-3 часа до срока); квадратными скобками обозначены град или гололедные отложения с указанием их диаметра в мм.
Облачность - указаны через наклонную черту общая и нижняя облачность в баллах и высота нижней границы облаков в метрах; квадратными скобками обозначены формы облаков: Ci - перистые, Cs - перисто-слоистые, Cc - перисто-кучевые, Ac - высококучевые, As - высокослоистые, Sc - слоисто-кучевые, Ns - слоисто-дождевые, Cu - кучевые, Cb - кучево-дождевые. Подробнее классификацию облаков см. в Атласе облаков (PDF).
T - Температура воздуха - температура, измеренная на высоте 2 м над землей.
Td - Температура точки росы - температура, при понижении до которой содержащийся в воздухе водяной пар достигнет насыщения.
f - Относительная влажность воздуха - влажноcть воздуха, измеренная на высоте 2 м над землей.
Te - Эффективная температура - температура, которую ощущает одетый по сезону человек в тени. Характеристика душности погоды. При расчете учитывается влияние влажности воздуха и скорости ветра на теплоощущения человека.
Tes - Эффективная температура на солнце - температура, которую ощущает человек, с поправкой на солнечный нагрев. Характеристика знойности погоды. Зависит от высоты солнца над горизонтом, облачности и скорости ветра. Ночью, в пасмурную погоду, а также при ветре 12 м/с и более поправка равна нулю.
P - Атмосферное давление - приведенное к уровню моря атмосферное давление.
Po - Атмосферное давление - измеренное на уровне метеостанции атмосферное давление.
Tmin - Минимальная температура - минимум температуры воздуха на высоте 2 м над землей.
Tmax - Максимальная температура - максимум температуры воздуха на высоте 2 м над землей.
R - Количество осадков - Количество выпавших осадков за период времени, мм. При наведении курсора мыши на число - период времени, за который выпало указанное количество осадков.
R24 - Количество осадков - Количество выпавших осадков за 24 часа, мм.
S - Снежный покров - Высота снежного покрова, см. При наведении курсора мыши на число - состояние снежного покрова и степень покрытия местности в баллах.